Location: Axtheid
(49.6213°N, 11.8205°E)
Time: 09:21:47
(UTC+00:00)

Envisat - Pass Details

Date: 02 October 2022
Orbit: 763 x 765 km, 98.2° (Epoch: 01 December)

Event Time Altitude Azimuth Distance (km) Brightness Sun altitude
Rises 02:54:24 0° 21° (NNE) 3,246 6.9 -22.9°
Reaches altitude 10° 02:56:56 10° 30° (NNE) 2,315 6.2 -22.5°
Maximum altitude 03:01:33 34° 95° (E) 1,248 4.6 -21.8°
Drops below altitude 10° 03:06:09 10° 160° (SSE) 2,298 5.5 -21.1°
Sets 03:08:38 0° 170° (S) 3,219 6.1 -20.8°
